Meteo4 di Emilio Bellavite Il primo osservatorio Meteo di Verona  
 
mercoledì 23 gennaio 2019
 
 
dati in tempo reale
Di seguito i dati in tempo reale delle stazioni on line della rete di Meteo4. Cliccando sul link della stazione, ove presente, si accederà al sito web personale.
Stazioni online
Località Giorno Ora Temp. Umid. Relat. Dew Point Press. Atm. Velocità Vento Direz. Vento Precip. Temp.
Min
Temp.
Max
Abano (PD) 23/01/19 07.40 0.7 °C 96 % 0.2 °C 999.7 hPa 1.6 Km/h N 0.2 mm  0.7 °C 3.5 °C
Acquapendente (VT) 23/01/19 07.48 2.5 °C 94 % 1.6 °C 999.1 hPa 0.0 Km/h SW 1.0 mm  1.6 °C 2.7 °C
Acquaviva delle Fonti (BA) 23/01/19 07.48 5.2 °C 80 % 2.0 °C 999.6 hPa 4.1 Km/h SSE 0.0 mm  3.3 °C 5.6 °C
Ala (TN) 23/01/19 07.48 -0.3 °C 76 % -4.0 °C 998.2 hPa 0.0 Km/h ESE 0.0 mm  -0.9 °C 0.5 °C
Alleghe (BL) 23/01/19 07.48 -6.2 °C 85 % -8.3 °C 981.2 hPa 0.0 Km/h E 0.0 mm  -6.2 °C -4.5 °C
Alleghe Lago (BL) 23/01/19 07.48 -5.5 °C 89 % -7.0 °C 995.2 hPa 4.1 Km/h SSW 0.0 mm  -6.2 °C -4.9 °C
Ancona (AN) 23/01/19 07.40 1.6 °C 98 % 1.3 °C 999.9 hPa 0.0 Km/h SSE 0.6 mm  1.4 °C 1.8 °C
Ancona loc. Brecce Bianche (AN) 23/01/19 07.46 1.5 °C 87 % -0.4 °C 999.7 hPa 1.8 Km/h NW 0.7 mm  1.4 °C 1.7 °C
Ardea (RM) 23/01/19 07.44 4.7 °C 89 % 3.0 °C 1000.1 hPa 3.0 Km/h E 0.9 mm  4.6 °C 6.2 °C
Arenzano (GE) 23/01/19 07.48 3.7 °C 90 % 2.2 °C 996.6 hPa 6.4 Km/h W 8.4 mm  3.5 °C 7.1 °C
Arquà Polesine (RO) 23/01/19 07.45 0.2 °C 93 % -0.8 °C 1000.4 hPa 0.0 Km/h NW 0.4 mm  -0.1 °C 2.9 °C
Arzignano loc. Castello (VI) 23/01/19 07.00 -0.3 °C 92 % -1.5 °C 997.6 hPa 0.0 Km/h --- 0.0 mm  -0.4 °C 2.2 °C
Arzignano Pugnello (VI) 23/01/19 07.44 -1.2 °C 91 % -2.5 °C 997.0 hPa 0.0 Km/h WNW 0.0 mm  -1.3 °C 1.3 °C
Arzignano Tezze (VI) 23/01/19 07.39 -0.2 °C 97 % -0.6 °C 998.8 hPa 0.0 Km/h NNW 0.0 mm  -0.2 °C 0.9 °C
Asiago Rifugio Val Formica (VI) 23/01/19 07.48 -8.7 °C 89 % -10.2 °C 997.2 hPa 5.0 Km/h SE 0.0 mm  -9.4 °C -7.3 °C
Avio (TN) 23/01/19 07.49 1.2 °C 74 % -2.9 °C 997.7 hPa 0.0 Km/h ENE 0.0 mm  0.5 °C 1.4 °C
Badia Calavena loc. San Valentino (VR) 23/01/19 07.48 -3.8 °C 94 % -4.7 °C 995.7 hPa 4.8 Km/h ENE 0.0 mm  -3.8 °C -2.0 °C
Balbido (TN) 23/01/19 07.45 -3.3 °C 71 % -7.8 °C 996.8 hPa 0.4 Km/h SW 0.0 mm  -3.9 °C -2.0 °C
Barbara (AN) 23/01/19 07.48 0.7 °C 87 % -1.2 °C 1002.0 hPa 0.0 Km/h SSE 0.5 mm  0.6 °C 1.6 °C
Barcellona P.G. Centro (ME) 23/01/19 07.48 6.9 °C 77 % 3.2 °C 1002.5 hPa 6.4 Km/h ESE 0.0 mm  6.8 °C 9.1 °C
Barcellona Pozzo di Gotto (ME) 23/01/19 07.48 8.1 °C 75 % 3.9 °C 1002.6 hPa 7.6 Km/h SW 0.0 mm  7.3 °C 9.9 °C
Bardolino (VR) 23/01/19 07.44 1.1 °C 92 % -0.1 °C 991.2 hPa 8.0 Km/h SE 0.0 mm  1.1 °C 3.3 °C
Bellaria Igea Marina (RN) 23/01/19 07.48 1.4 °C 95 % 0.7 °C 998.6 hPa 11.3 Km/h WNW 0.2 mm  1.2 °C 2.3 °C
Bellaria Igea Marina2 (RN) 23/01/19 07.48 1.4 °C 97 % 1.0 °C 998.4 hPa 12.9 Km/h WNW 0.6 mm  1.3 °C 2.4 °C
Belluno Castion (BL) 23/01/19 07.30 -2.2 °C 93 % -3.1 °C 998.4 hPa 0.0 Km/h --- 0.0 mm  -2.2 °C -0.6 °C
Bernate Ticino fraz. Casate (MI) 23/01/19 07.45 -5.7 °C 88 % -7.4 °C 995.0 hPa 0.0 Km/h NNE 0.0 mm  -6.4 °C -5.1 °C
Besenello (TN) 23/01/19 07.48 -1.8 °C 76 % -5.5 °C 999.2 hPa 1.7 Km/h ENE 0.0 mm  -3.6 °C -1.4 °C
Besozzo (VA) 23/01/19 07.44 -6.1 °C 93 % -7.0 °C 998.7 hPa 0.0 Km/h SSW 0.0 mm  -6.7 °C -4.6 °C
Bientina (PI) 23/01/19 07.45 1.3 °C 98 % 1.0 °C 996.9 hPa 0.0 Km/h W 0.3 mm  1.2 °C 2.5 °C
Bisignano (CS) 23/01/19 07.43 6.4 °C 81 % 3.4 °C 1000.1 hPa 4.1 Km/h NE 1.2 mm  5.8 °C 8.8 °C
Bonorva (SS) 23/01/19 07.45 3.7 °C 87 % 1.8 °C 999.4 hPa 11.3 Km/h SSE 1.4 mm  2.3 °C 4.6 °C
Borgo Valsugana (TN) 23/01/19 07.39 -2.4 °C 70 % -7.1 °C 997.9 hPa 1.4 Km/h SSE 0.0 mm  -2.5 °C -1.8 °C
Borore (NU) 23/01/19 07.48 1.6 °C 82 % -1.2 °C 999.8 hPa 2.6 Km/h S 1.0 mm  1.6 °C 4.2 °C
Brebbia (VA) 22/01/19 23.30 -3.8 °C 86 % -5.8 °C 1003.4 hPa 0.0 Km/h S 0.0 mm  -6.2 °C 6.7 °C
Brendola (VI) 23/01/19 07.45 0.4 °C 99 % 0.3 °C 984.3 hPa 0.0 Km/h NW 0.0 mm  -1.2 °C 7.9 °C
Bresega (PD) 23/01/19 07.45 0.7 °C 94 % 0.0 °C 998.5 hPa 1.4 Km/h NE 0.0 mm  0.6 °C 3.8 °C
Brognoligo (VR) 23/01/19 07.39 0.9 °C 86 % -1.2 °C 995.8 hPa 2.6 Km/h ESE 0.3 mm  0.5 °C 2.2 °C
Brolo c/da Parrazzà (ME) 23/01/19 07.45 8.1 °C 67 % 2.3 °C 1002.5 hPa 8.0 Km/h SSE 0.0 mm  7.3 °C 10.1 °C
Brugine2 (PD) 23/01/19 07.44 0.3 °C 94 % -0.5 °C 999.3 hPa 0.0 Km/h NNW 0.0 mm  0.2 °C 3.3 °C
Buccheri (SR) 23/01/19 05.53 2.5 °C 84 % 0.1 °C 1002.5 hPa 6.5 Km/h N 0.0 mm  2.3 °C 3.4 °C
Budoia (PN) 23/01/19 07.45 -0.1 °C 94 % -0.9 °C 999.3 hPa 3.2 Km/h NW 0.0 mm  -0.3 °C 2.6 °C
Ca' Gallo (PU) 23/01/19 07.39 0.9 °C 93 % -0.1 °C 993.8 hPa 0.0 Km/h ENE 1.5 mm  0.9 °C 1.3 °C
Calcinato (BS) 23/01/19 07.48 0.6 °C 91 % -0.7 °C 1000.8 hPa 0.0 Km/h S 0.0 mm  0.6 °C 1.7 °C
Calliano (TN) 23/01/19 07.48 -2.1 °C 76 % -5.7 °C 998.3 hPa 0.0 Km/h ENE 0.0 mm  -3.4 °C -1.4 °C
Caltabellotta (AG) 23/01/19 07.35 2.9 °C 90 % 1.5 °C 1002.3 hPa 0.0 Km/h ESE 0.4 mm  2.8 °C 3.8 °C
Cammarata (AG) 23/01/19 07.45 3.0 °C 79 % -0.3 °C 1002.1 hPa 0.0 Km/h SE 0.0 mm  1.4 °C 4.4 °C
Campoformido (UD) 23/01/19 07.48 0.6 °C 76 % -3.2 °C 999.6 hPa 8.9 Km/h E 0.0 mm  0.2 °C 2.6 °C
Capodimonte (VT) 23/01/19 07.45 2.0 °C 96 % 1.4 °C 1000.8 hPa 0.0 Km/h N 0.4 mm  1.9 °C 2.8 °C
Caprarola Centro Storico (VT) 23/01/19 07.48 0.5 °C 95 % -0.2 °C 999.0 hPa 1.5 Km/h NW 0.4 mm  0.1 °C 1.4 °C
Carceri (PD) 23/01/19 07.30 0.4 °C 92 % -0.6 °C 998.2 hPa 0.0 Km/h NNW 0.0 mm  0.3 °C 3.6 °C
Carezza (BZ) 23/01/19 07.39 -9.4 °C 94 % -10.3 °C 992.8 hPa 0.0 Km/h SSE 0.0 mm  -12.4 °C -9.2 °C
Carmignano loc. Seano (PO) 23/01/19 07.49 1.2 °C 92 % 0.1 °C 999.0 hPa 0.0 Km/h SE 0.3 mm  1.2 °C 2.2 °C
Carpi (MO) 23/01/19 07.45 0.6 °C 96 % 0.0 °C 998.2 hPa 7.4 Km/h ENE 0.5 mm  0.6 °C 1.6 °C
Cartigliano (VI) 23/01/19 07.48 -0.4 °C 90 % -1.8 °C 998.3 hPa 0.0 Km/h SE 0.0 mm  -0.4 °C 1.9 °C
Casotto (VI) 23/01/19 07.44 -2.1 °C 93 % -3.1 °C 997.3 hPa 0.0 Km/h NNW 0.0 mm  -2.1 °C -0.2 °C
Cassano Magnago (VA) 23/01/19 07.39 -2.8 °C 87 % -4.7 °C 998.5 hPa 0.0 Km/h SE 0.0 mm  -4.1 °C -2.5 °C
Castel d'Azzano (VR) 22/01/19 22.45 2.6 °C 79 % -0.7 °C 827.1 hPa 0.0 Km/h --- 0.0 mm  -1.8 °C 8.4 °C
Castelferro (AL) 23/01/19 07.48 -1.8 °C 91 % -3.1 °C 998.6 hPa 6.4 Km/h NW 0.0 mm  -4.7 °C -1.6 °C
Castelfranco Veneto (TV) 23/01/19 07.40 0.0 °C 99 % -0.1 °C 1001.6 hPa 0.4 Km/h NNW 0.0 mm  -0.1 °C 3.1 °C
Castelgomberto (VI) 23/01/19 07.49 -0.2 °C 92 % -1.4 °C 998.2 hPa 0.0 Km/h N 0.0 mm  -0.3 °C 2.0 °C
Castelnuovo V.C. (PI) 23/01/19 07.40 0.0 °C 99 % -0.1 °C 998.2 hPa 0.0 Km/h NW 0.0 mm  -1.8 °C 0.2 °C
Castiglione del Lago (PG) 23/01/19 07.40 2.3 °C 95 % 1.6 °C 1001.4 hPa 0.0 Km/h --- 1.0 mm  1.7 °C 2.3 °C
Castiglione della Pescaia Vaticino (GR) 23/01/19 07.46 1.7 °C 93 % 0.7 °C 987.4 hPa 2.5 Km/h WSW 0.7 mm  1.7 °C 2.5 °C
Cavaria con Premezzo (VA) 23/01/19 07.44 -3.6 °C 86 % -5.6 °C 997.8 hPa 2.6 Km/h NE 0.0 mm  -4.2 °C -2.3 °C
Cavazzale (VI) 23/01/19 07.35 0.3 °C 94 % -0.5 °C 999.4 hPa 0.0 Km/h --- 0.0 mm  0.3 °C 0.4 °C
Cefalù (PA) 23/01/19 01.06 10.1 °C 59 % 2.4 °C 1001.9 hPa 23.9 Km/h SSW 0.0 mm  10.1 °C 10.3 °C
Cerea (VR) 23/01/19 07.30 0.8 °C 95 % 0.1 °C 999.3 hPa 3.2 Km/h ESE 0.8 mm  0.7 °C 2.8 °C
Cerea2 (VR) 23/01/19 07.45 0.5 °C 90 % -0.9 °C 1000.0 hPa 5.0 Km/h E 0.8 mm  0.3 °C 2.6 °C
Chieti (CH) 23/01/19 07.45 1.4 °C 93 % 0.4 °C 999.6 hPa 2.0 Km/h E 0.0 mm  1.2 °C 3.9 °C
Chiusi (SI) 23/01/19 07.35 1.6 °C 99 % 1.4 °C 996.8 hPa 0.0 Km/h WNW 0.3 mm  0.8 °C 1.7 °C
Cima Grappa (TV) 23/01/19 07.48 -9.1 °C 94 % -9.9 °C 999.8 hPa 2.0 Km/h NNW 0.0 mm  -10.1 °C -7.4 °C
Cismon del Grappa loc. Corlo (VI) 23/01/19 07.39 -2.0 °C 95 % -2.7 °C 999.2 hPa 0.0 Km/h ENE 0.0 mm  -2.1 °C 0.6 °C
Civita Castellana (VT) 23/01/19 07.49 1.4 °C 10 % -27.0 °C 1000.1 hPa 1.5 Km/h W 0.0 mm  1.4 °C 3.9 °C
Codroipo (UD) 23/01/19 07.45 0.8 °C 71 % -3.9 °C 996.9 hPa 10.1 Km/h E 0.0 mm  0.4 °C 3.3 °C
Cogollo del Cengio (VI) 23/01/19 07.45 -1.6 °C 99 % -1.7 °C 997.0 hPa 1.4 Km/h N 0.0 mm  -1.7 °C 0.9 °C
Colle del Piccolo San Bernardo La Thuile (AO) 23/01/19 07.44 0.0 °C 0 % 0.0 °C 996.5 hPa 0.0 Km/h NE 0.0 mm  -12.8 °C -10.8 °C
Cologna Veneta Sant'Andrea (VR) 23/01/19 07.40 0.4 °C 56 % -7.3 °C 999.3 hPa 0.0 Km/h --- 0.0 mm  0.4 °C 3.2 °C
Colognola ai Colli (VR) 23/01/19 07.40 0.7 °C 92 % -0.5 °C 999.2 hPa 0.0 Km/h --- 0.0 mm  0.6 °C 1.9 °C
Contrada Dosso Gervasio (VR) 23/01/19 07.30 -4.2 °C 95 % -4.9 °C 996.0 hPa 0.0 Km/h SSW 0.0 mm  -4.3 °C -3.0 °C
Cornedo Vicentino loc. Muzzolon (VI) 23/01/19 07.39 -1.6 °C 97 % -2.0 °C 996.8 hPa 0.0 Km/h ENE 0.0 mm  -1.6 °C 0.6 °C
Cosseria Lidora (SV) 23/01/19 07.30 -0.7 °C 78 % -4.0 °C 997.3 hPa 3.2 Km/h WNW 0.0 mm  -3.9 °C -0.5 °C
Costa di Vittorio Veneto (TV) 23/01/19 07.39 -0.1 °C 93 % -1.1 °C 997.9 hPa 1.4 Km/h NNE 0.0 mm  -0.3 °C 1.9 °C
Costa Volpino (BG) 23/01/19 07.40 -2.0 °C 65 % -7.7 °C 995.3 hPa 1.4 Km/h WNW 0.0 mm  -2.0 °C -0.5 °C
Dorno (PV) 23/01/19 07.49 -4.1 °C 95 % -4.8 °C 999.2 hPa 0.0 Km/h WNW 0.0 mm  -5.0 °C -3.6 °C
Dossobuono (VR) 23/01/19 07.48 0.6 °C 92 % -0.6 °C 1000.3 hPa 4.8 Km/h ESE 0.0 mm  0.5 °C 2.6 °C
Erbezzo Passo Fittanze (VR) 23/01/19 07.39 -7.1 °C 91 % -8.3 °C 999.9 hPa 0.0 Km/h SE 0.0 mm  -7.5 °C -6.4 °C
Esine (BS) 23/01/19 07.48 -2.3 °C 76 % -6.0 °C 997.9 hPa 0.0 Km/h ESE 0.0 mm  -2.8 °C -1.1 °C
Falzè di Piave (TV) 23/01/19 07.44 -0.3 °C 94 % -1.1 °C 1000.1 hPa 0.0 Km/h --- 0.0 mm  -0.4 °C 2.3 °C
Farra di Soligo (TV) 23/01/19 07.45 0.0 °C 0 % 0.0 °C 993.6 hPa 0.0 Km/h ESE 0.0 mm  -1.5 °C 1.8 °C
Feltre Celarda (BL) 23/01/19 07.48 -1.5 °C 93 % -2.5 °C 997.6 hPa 0.0 Km/h E 0.0 mm  -2.3 °C 0.5 °C
Ferrara di M.B. (VR) 23/01/19 07.40 -6.0 °C 89 % -7.5 °C 994.5 hPa 0.0 Km/h --- 0.0 mm  -6.6 °C -5.3 °C
Fiavè loc. Ballino (TN) 23/01/19 07.45 -4.8 °C 88 % -6.5 °C 998.0 hPa 0.0 Km/h NW 0.0 mm  -5.1 °C -2.8 °C
Filo di Argenta (FE) 23/01/19 07.45 -0.1 °C 94 % -1.0 °C 999.8 hPa 2.2 Km/h W 1.3 mm  -0.2 °C 0.9 °C
Fogliano Redipuglia (GO) 23/01/19 07.45 -0.5 °C 78 % -3.9 °C 999.2 hPa 14.0 Km/h E 0.0 mm  -0.5 °C 2.3 °C
Foligno (PG) 23/01/19 07.40 3.3 °C 92 % 2.2 °C 999.3 hPa 1.6 Km/h SW 3.0 mm  2.4 °C 3.3 °C
Fontanafredda (PN) 23/01/19 07.48 -0.4 °C 98 % -0.7 °C 998.9 hPa 0.0 Km/h NE 0.0 mm  -0.7 °C 2.8 °C
Forchiade S. Tomaso Ag. (BL) 23/01/19 07.39 -4.6 °C 83 % -7.0 °C 995.1 hPa 0.0 Km/h W 0.0 mm  -5.4 °C -4.2 °C
Fumane Contrada La Ca (VR) 23/01/19 07.39 -1.2 °C 86 % -3.2 °C 998.5 hPa 3.2 Km/h SE 0.0 mm  -1.3 °C 0.6 °C
Gaggiano (MI) 23/01/19 07.46 -4.7 °C 95 % -5.4 °C 998.2 hPa 0.0 Km/h SE 0.0 mm  -6.6 °C -4.1 °C
Gallio (VI) 23/01/19 07.35 -6.2 °C 94 % -7.0 °C 998.2 hPa 0.0 Km/h N 0.0 mm  -6.2 °C -4.2 °C
Gardolo (TN) 23/01/19 07.48 -2.6 °C 75 % -6.4 °C 999.6 hPa 0.0 Km/h NE 0.0 mm  -5.0 °C -2.7 °C
Genova (GE) 23/01/19 07.48 3.5 °C 87 % 1.5 °C 999.6 hPa 3.2 Km/h NE 4.1 mm  3.4 °C 6.3 °C
Genova Erzelli (GE) 23/01/19 07.43 1.4 °C 88 % -0.3 °C 995.7 hPa 22.5 Km/h N 4.6 mm  1.4 °C 4.9 °C
Genova Oregina (GE) 23/01/19 07.48 2.6 °C 78 % -0.9 °C 996.5 hPa 4.8 Km/h NNE 3.4 mm  2.5 °C 6.4 °C
Gorizia (GO) 23/01/19 07.45 -1.1 °C 79 % -4.3 °C 998.4 hPa 9.7 Km/h E 0.0 mm  -1.1 °C 1.6 °C
Iglesias (CI) 23/01/19 07.45 3.2 °C 93 % 2.2 °C 1002.5 hPa 0.0 Km/h N 5.2 mm  2.8 °C 7.9 °C
Isera loc. Reviano (TN) 23/01/19 07.49 -1.3 °C 70 % -6.1 °C 996.5 hPa 0.0 Km/h NNE 0.0 mm  -2.3 °C -0.9 °C
Isola d'Elba Marina di Campo (LI) 23/01/19 07.15 5.8 °C 94 % 4.9 °C 1032.3 hPa 0.0 Km/h N 0.8 mm  3.4 °C 5.8 °C
Lavis (TN) 23/01/19 07.44 -2.8 °C 76 % -6.7 °C 999.7 hPa 0.0 Km/h SSE 0.0 mm  -4.8 °C -2.7 °C
Laxolo (BG) 23/01/19 07.46 -4.1 °C 21 % -23.1 °C 991.8 hPa 0.0 Km/h NNW 0.0 mm  -5.1 °C 5.5 °C
Lendinara2 (RO) 23/01/19 07.39 -0.7 °C 92 % -1.8 °C 999.5 hPa 0.0 Km/h N 0.3 mm  -0.9 °C 1.9 °C
Lesmo (MB) 23/01/19 07.45 -1.1 °C 86 % -3.1 °C 999.0 hPa 3.2 Km/h E 0.0 mm  -4.5 °C -1.1 °C
Limbiate (MB) 23/01/19 07.45 -3.1 °C 90 % -4.5 °C 989.2 hPa 0.0 Km/h NE 0.0 mm  -4.6 °C -2.9 °C
Loano (SV) 23/01/19 07.45 6.6 °C 64 % 0.2 °C 995.3 hPa 6.0 Km/h WSW 0.0 mm  6.1 °C 7.9 °C
Lugagnano (VR) 23/01/19 07.44 0.7 °C 93 % 0.0 °C 998.0 hPa 3.2 Km/h SSW 0.0 mm  0.6 °C 2.7 °C
Lugo di Vicenza (VI) 22/01/19 23.24 0.7 °C 69 % -4.3 °C 1000.5 hPa 0.0 Km/h NW 0.0 mm  -1.8 °C 9.1 °C
Lusiana Sciessere (VI) 23/01/19 07.48 -4.3 °C 94 % -5.1 °C 995.7 hPa 0.0 Km/h ESE 0.0 mm  -4.4 °C -2.1 °C
Malga Malera (VR) 23/01/19 07.38 -9.3 °C  %  °C  hPa 0.0 Km/h 0.0 mm   °C  °C
Malga Nardis (TN) 23/01/19 07.45 -10.3 °C 88 % -11.9 °C 995.5 hPa 0.0 Km/h NNW 0.0 mm  -10.4 °C -7.1 °C
Malnate San Salvatore (VA) 23/01/19 07.45 -4.3 °C 92 % -5.4 °C 999.1 hPa 0.0 Km/h --- 0.0 mm  -4.7 °C -3.3 °C
Marano Vicentino2 (VI) 23/01/19 07.45 -0.6 °C 92 % -1.7 °C 997.3 hPa 0.0 Km/h N 0.0 mm  0.0 °C 0.0 °C
Margone (TN) 23/01/19 07.40 -4.1 °C 91 % -5.3 °C 999.8 hPa 0.0 Km/h SSW 0.0 mm  -4.1 °C -3.5 °C
Marina di Montemarciano (AN) 23/01/19 07.40 1.9 °C 89 % 0.3 °C 1000.2 hPa 0.0 Km/h --- 0.2 mm  1.9 °C 2.4 °C
Marineo (PA) 23/01/19 07.48 5.0 °C 87 % 3.0 °C 1002.1 hPa 9.7 Km/h SSE 0.0 mm  4.4 °C 5.7 °C
Marostica Valle San Floriano (VI) 23/01/19 07.44 0.0 °C 0 % 0.0 °C 1000.0 hPa 0.0 Km/h ESE 0.0 mm  -0.6 °C 1.6 °C
Marta (VT) 23/01/19 07.45 1.9 °C 92 % 0.7 °C 996.9 hPa 0.0 Km/h SW 0.6 mm  1.6 °C 2.6 °C
Mascalucia (CT) 21/01/19 04.46 5.3 °C 92 % 4.1 °C 1011.7 hPa 0.0 Km/h N 0.0 mm  4.1 °C 5.3 °C
Masiera di Bagnacavallo (RA) 23/01/19 07.45 1.1 °C 94 % 0.2 °C 999.2 hPa 3.5 Km/h N 0.7 mm  1.1 °C 2.0 °C
Massignano (AP) 23/01/19 07.29 1.1 °C 91 % -0.2 °C 999.2 hPa 0.0 Km/h NNE 5.2 mm  1.1 °C 3.2 °C
Massone di Arco (TN) 23/01/19 07.46 0.8 °C 73 % -3.5 °C 996.5 hPa 0.0 Km/h ONO 0.0 mm  -0.1 °C 0.8 °C
Merlara (PD) 23/01/19 07.40 0.0 °C 77 % -3.5 °C 998.6 hPa 0.0 Km/h --- 0.3 mm  -0.1 °C 2.4 °C
Mezzana Bigli (PV) 23/01/19 07.30 -4.9 °C 95 % -5.6 °C 997.5 hPa 0.0 Km/h SSW 0.0 mm  -5.9 °C -4.4 °C
Migliarino (FE) 23/01/19 07.48 1.1 °C 85 % -1.1 °C 997.5 hPa 0.0 Km/h S 0.9 mm  1.0 °C 3.3 °C
Miglionico (MT) 23/01/19 07.40 3.8 °C 82 % 1.0 °C 998.0 hPa 9.7 Km/h S 1.2 mm  3.0 °C 5.6 °C
Miola di Piné (TN) 23/01/19 07.45 -4.3 °C 88 % -6.0 °C 998.7 hPa 1.1 Km/h SSE 0.0 mm  -5.1 °C -3.8 °C
Mirabella Imbaccari (CT) 23/01/19 07.45 4.4 °C 80 % 1.2 °C 1004.5 hPa 0.0 Km/h WNW 0.0 mm  3.4 °C 6.3 °C
Mizzole (VR) 23/01/19 07.45 0.7 °C 89 % -0.9 °C 999.4 hPa 0.0 Km/h SE 0.0 mm  0.7 °C 1.4 °C
Molina (VR) 22/01/19 16.24 2.4 °C 44 % -8.6 °C 1003.4 hPa 1.3 Km/h NE 0.0 mm  2.4 °C 4.1 °C
Monasterolo Torinese (TO) 23/01/19 07.40 -1.0 °C 74 % -5.0 °C 994.2 hPa 0.0 Km/h --- 0.0 mm  -1.5 °C -0.5 °C
Moneglia loc. Casale (GE) 23/01/19 07.46 2.5 °C 83 % -0.1 °C 997.9 hPa 9.7 Km/h NE 0.0 mm  2.3 °C 4.8 °C
Moneglia loc. La Secca (GE) 23/01/19 07.45 5.0 °C 74 % 0.7 °C 996.1 hPa 0.0 Km/h NW 0.0 mm  4.3 °C 6.8 °C
Mongrando San Michele (BI) 23/01/19 07.40 -2.1 °C 100 % -2.1 °C 997.7 hPa 0.0 Km/h --- 0.0 mm  -3.8 °C -1.9 °C
Monselice (PD) 23/01/19 07.46 1.2 °C 83 % -1.4 °C 992.7 hPa 9.7 Km/h N 0.0 mm  0.9 °C 4.7 °C
Montagna in Valtellina (SO) 23/01/19 07.48 -3.4 °C 75 % -7.2 °C 999.0 hPa 0.0 Km/h ENE 0.0 mm  -3.4 °C -1.1 °C
Montebello Vicentino loc. Selva (VI) 23/01/19 07.49 -0.6 °C 86 % -2.7 °C 999.0 hPa 8.0 Km/h NNE 0.0 mm  -0.7 °C 1.7 °C
Montecchio Maggiore Sant'Urbano (VI) 23/01/19 07.35 -1.1 °C 81 % -3.7 °C 1005.6 hPa 0.6 Km/h N 0.0 mm  -1.2 °C 7.2 °C
Monteforte d'Alpone2 (VR) 23/01/19 07.50 0.6 °C 93 % -0.4 °C 997.7 hPa 6.4 Km/h ENE 0.0 mm  0.4 °C 3.0 °C
Montelabbate (PU) 23/01/19 07.39 2.3 °C 90 % 0.8 °C 993.5 hPa 5.3 Km/h SW 0.0 mm  2.2 °C 2.8 °C
Montespertoli (FI) 23/01/19 07.48 1.1 °C 96 % 0.5 °C 999.2 hPa 0.0 Km/h E 0.0 mm  0.5 °C 1.2 °C
Montopoli in val d'Arno Loc. Capanne (PI) 23/01/19 07.40 1.4 °C 92 % 0.3 °C 998.0 hPa 0.1 Km/h ENE 0.0 mm  1.3 °C 1.9 °C
Montorio (VR) 23/01/19 07.39 0.8 °C 92 % -0.4 °C 1001.2 hPa 0.0 Km/h SE 0.0 mm  0.6 °C 1.8 °C
Montorso Vicentino (VI) 23/01/19 07.38 -1.4 °C 92 % -2.5 °C 998.5 hPa 0.0 Km/h NNW 0.0 mm  -1.4 °C 1.3 °C
Musigliano (PI) 23/01/19 07.46 3.8 °C 81 % 0.8 °C 997.5 hPa 5.0 Km/h 0.3 mm  3.1 °C 3.9 °C
Muzzano (BI) 23/01/19 07.40 -1.3 °C 74 % -5.4 °C 996.4 hPa 0.0 Km/h --- 0.0 mm  -1.6 °C -0.7 °C
Nichelino (TO) 23/01/19 07.00 -2.2 °C 90 % -3.6 °C 1000.1 hPa 1.6 Km/h SSE 0.0 mm  -2.8 °C -1.7 °C
Novara (NO) 23/01/19 07.40 -4.4 °C 88 % -6.1 °C 997.6 hPa 0.0 Km/h --- 0.0 mm  -5.9 °C -3.7 °C
Onara extraurbana (PD) 23/01/19 07.44 0.3 °C 92 % -0.8 °C 993.4 hPa 0.0 Km/h W 0.0 mm  0.2 °C 1.9 °C
Oristano (OR) 23/01/19 07.48 8.2 °C 88 % 6.3 °C 999.6 hPa 3.5 Km/h NE 0.8 mm  8.2 °C 8.2 °C
Ortonovo (SP) 23/01/19 07.45 2.7 °C 83 % 0.1 °C 997.3 hPa 2.5 Km/h SE 0.0 mm  1.9 °C 2.8 °C
Orvieto (TR) 22/01/19 23.01 2.1 °C 90 % 0.6 °C 1000.0 hPa 0.0 Km/h SSE 11.8 mm  0.9 °C 3.5 °C
Ovaro loc. Liariis (UD) 23/01/19 07.30 -2.7 °C 92 % -3.8 °C 1000.6 hPa 0.0 Km/h --- 0.0 mm  -2.8 °C -0.3 °C
Pace del Mela (ME) 23/01/19 07.45 8.3 °C 59 % 0.8 °C 997.4 hPa 2.7 Km/h S 0.0 mm  7.3 °C 9.3 °C
Padergnone (TN) 23/01/19 07.30 0.3 °C 77 % -3.3 °C 999.0 hPa 0.0 Km/h W 0.0 mm  -3.3 °C 0.3 °C
Parella (TO) 23/01/19 07.39 -1.1 °C 80 % -4.1 °C 996.2 hPa 0.0 Km/h WNW 0.0 mm  -2.2 °C -1.1 °C
Pastrengo (VR) 23/01/19 07.39 0.3 °C 86 % -1.8 °C 999.9 hPa 2.4 Km/h E 0.0 mm  0.3 °C 1.8 °C
Pastrengo Corné (VR) 23/01/19 07.49 0.2 °C 96 % -0.4 °C 998.1 hPa 1.4 Km/h ENE 0.0 mm  0.2 °C 2.0 °C
Pecetto Torinese (TO) 23/01/19 07.39 -0.8 °C 80 % -3.8 °C 997.5 hPa 1.6 Km/h E 0.0 mm  -1.7 °C -0.5 °C
Pedemonte (VR) 23/01/19 07.40 1.2 °C 90 % -0.2 °C 998.5 hPa 2.0 Km/h SE 0.0 mm  0.9 °C 1.6 °C
Perarolo di Arcugnano (VI) 23/01/19 07.46 0.7 °C 79 % -2.5 °C 968.6 hPa 0.0 Km/h E 0.0 mm  0.4 °C 2.6 °C
Perugia San Mariano (PG) 23/01/19 07.44 1.8 °C 89 % 0.1 °C 1000.2 hPa 0.0 Km/h --- 2.5 mm  1.3 °C 1.9 °C
Pescantina Are (VR) 23/01/19 07.43 0.8 °C 95 % 0.1 °C 999.0 hPa 0.0 Km/h E 0.0 mm  0.8 °C 2.1 °C
Peschiera del Garda (VR) 23/01/19 07.40 0.9 °C 92 % -0.2 °C 999.0 hPa 4.8 Km/h ESE 0.0 mm  0.8 °C 2.2 °C
Pian di Castagné (VR) 23/01/19 07.35 -1.7 °C 95 % -2.4 °C 998.5 hPa 0.0 Km/h ESE 0.0 mm  -1.8 °C 0.3 °C
Pian di Castagné2 (VR) 23/01/19 07.39 -1.9 °C 99 % -2.0 °C 997.5 hPa 2.1 Km/h ESE 0.0 mm  -1.9 °C -0.2 °C
Pila Valsesia (VC) 23/01/19 07.45 -5.1 °C 84 % -7.4 °C 996.2 hPa 0.0 Km/h --- 0.0 mm  -6.2 °C -4.6 °C
Piovà Massaia (AT) 22/01/19 19.00 1.3 °C 73 % -3.0 °C 1002.5 hPa 0.0 Km/h SE 0.0 mm  -2.6 °C 4.8 °C
Piraino contr. Fiumara (ME) 23/01/19 07.40 5.2 °C 87 % 3.2 °C 1003.3 hPa 0.0 Km/h NNE 0.0 mm  4.7 °C 7.3 °C
Pisa zona I Passi (PI) 23/01/19 07.48 2.5 °C 83 % -0.1 °C 998.3 hPa 0.0 Km/h E 1.0 mm  2.1 °C 2.9 °C
Pojana Maggiore Cagnano (VI) 23/01/19 07.47 0.9 °C 85 % -1.3 °C 997.0 hPa 3.0 Km/h 0.0 mm  0.9 °C 3.6 °C
Pomezia (RM) 23/01/19 07.48 3.8 °C 92 % 2.6 °C 998.7 hPa 8.0 Km/h SE 4.4 mm  3.7 °C 5.0 °C
Ponte San Nicolò (PD) 23/01/19 07.39 0.9 °C 91 % -0.3 °C 998.7 hPa 1.6 Km/h NNW 0.0 mm  0.8 °C 3.8 °C
Ponte San Pellegrino (MO) 23/01/19 07.46 0.2 °C 96 % -0.4 °C 1002.2 hPa 0.0 Km/h ENE 1.5 mm  0.1 °C 1.4 °C
Pordenone (PN) 23/01/19 07.45 1.1 °C 92 % 0.0 °C 999.0 hPa 0.0 Km/h NNE 0.0 mm  0.8 °C 3.6 °C
Pozzolo Formigaro (AL) 23/01/19 07.41 -2.9 °C 0 % -49.1 °C 998.3 hPa 0.0 Km/h SSE 0.0 mm  -5.8 °C -2.9 °C
Pray (BI) 23/01/19 07.45 -4.9 °C 91 % -6.1 °C 997.8 hPa 0.0 Km/h --- 0.0 mm  -6.4 °C -4.9 °C
Reggello (FI) 23/01/19 07.45 -0.6 °C 96 % -1.2 °C 1001.8 hPa 0.0 Km/h SO 0.0 mm  -0.7 °C -0.3 °C
Riccione (RN) 23/01/19 07.44 1.6 °C 92 % 0.4 °C 999.4 hPa 6.4 Km/h WNW 0.3 mm  1.6 °C 2.5 °C
Rifugio Bocca di Selva (VR) 23/01/19 07.49 -8.2 °C 94 % -9.0 °C 997.8 hPa 0.0 Km/h N 0.0 mm  -8.6 °C -7.3 °C
Rifugio Castelberto (VR) 23/01/19 07.49 -8.6 °C 81 % -11.3 °C 998.6 hPa 0.0 Km/h E 0.0 mm  -9.6 °C -8.3 °C
Rifugio Fiori del Baldo (VR) 23/01/19 07.35 -9.2 °C 80 % -10.1 °C 990.6 hPa 24.9 Km/h NW 0.0 mm  -9.7 °C -8.8 °C
Rifugio Primaneve (VR) 23/01/19 07.42 -8.9 °C 86 % -10.9 °C 997.9 hPa 0.0 Km/h NE 0.0 mm  -9.3 °C -7.0 °C
Rimini (RN) 23/01/19 07.40 1.7 °C 89 % 0.1 °C 999.5 hPa 0.0 Km/h WNW 0.0 mm  1.7 °C 2.8 °C
Rimini Zona Palas (RN) 23/01/19 07.44 1.3 °C 94 % 0.4 °C 999.5 hPa 4.8 Km/h W 0.0 mm  1.3 °C 2.6 °C
Rivalta sul Mincio (MN) 23/01/19 07.42 1.3 °C 93 % 0.3 °C 999.5 hPa 7.4 Km/h E 0.0 mm  1.3 °C 2.2 °C
Rocca Priora (RM) 23/01/19 07.15 0.2 °C 91 % -1.1 °C 1001.5 hPa 6.4 Km/h ESE 1.0 mm  0.0 °C 1.1 °C
Romano d'Ezzelino Fellette (VI) 23/01/19 07.48 -0.8 °C 10 % -28.6 °C 1001.0 hPa 0.0 Km/h ENE 0.0 mm  -0.8 °C 2.3 °C
Ronciglione Centro (VT) 23/01/19 07.45 1.1 °C 98 % 0.8 °C 998.0 hPa 0.0 Km/h WSW 0.0 mm  0.9 °C 2.0 °C
Ronciglione - Ponte Cuzzoli (VT) 23/01/19 07.49 0.0 °C 92 % -1.1 °C 999.8 hPa 1.6 Km/h WNW 0.2 mm  -0.3 °C 1.9 °C
Rosolina (RO) 23/01/19 07.35 0.3 °C 96 % -0.3 °C 1000.1 hPa 4.8 Km/h WNW 0.5 mm  0.3 °C 3.4 °C
Rossano Veneto (VI) 23/01/19 07.49 0.1 °C 91 % -1.2 °C 998.8 hPa 0.0 Km/h ESE 0.0 mm  0.1 °C 2.1 °C
S. Donà di Piave (VE) 23/01/19 07.16 0.2 °C 93 % -0.8 °C 998.0 hPa 4.8 Km/h NNW 0.0 mm  -0.4 °C 2.5 °C
S. Giovanni Ilarione2 (VR) 23/01/19 07.45 0.3 °C 88 % -1.4 °C 999.5 hPa 0.0 Km/h --- 0.0 mm  0.1 °C 1.3 °C
S. Giovanni Lupatoto (VR) 23/01/19 07.35 1.1 °C 94 % 0.3 °C 1000.5 hPa 0.0 Km/h --- 0.0 mm  1.0 °C 2.7 °C
S. Giovanni Rotondo (FG) 23/01/19 07.48 2.6 °C 89 % 1.0 °C 999.9 hPa 0.0 Km/h SW 0.0 mm  1.8 °C 3.4 °C
S. Lorenzo di Vittorio Veneto (TV) 23/01/19 07.45 -0.5 °C 90 % -1.9 °C 999.2 hPa 0.0 Km/h W 0.0 mm  -0.9 °C 1.9 °C
S. Lorenzo Nuovo (VT) 23/01/19 07.45 1.3 °C 96 % 0.7 °C 996.0 hPa 1.1 Km/h NNE 1.1 mm  0.4 °C 1.4 °C
S. Maria di Zevio Loc. 3 Ponti (VR) 23/01/19 07.45 0.6 °C 96 % 0.0 °C 1001.0 hPa 1.6 Km/h E 0.0 mm  0.6 °C 3.9 °C
S. Maria Maddalena (RO) 23/01/19 07.44 0.8 °C 94 % 0.0 °C 998.2 hPa 0.0 Km/h N 1.0 mm  0.8 °C 2.8 °C
S. Martino Lupari (PD) 23/01/19 07.40 0.0 °C 95 % -0.7 °C 819.0 hPa 0.0 Km/h --- 0.0 mm  -0.1 °C 2.0 °C
S. Rocco di Villabalzana (VI) 23/01/19 07.47 -0.5 °C 92 % -1.7 °C 998.8 hPa 0.0 Km/h NE 0.0 mm  -0.6 °C 2.7 °C
S. Zeno di Mont. Prada (VR) 23/01/19 07.35 -4.6 °C 74 % -8.5 °C 998.4 hPa 0.0 Km/h --- 0.0 mm  -5.5 °C -4.1 °C
Sacile (PN) 23/01/19 07.35 0.1 °C 88 % -1.7 °C 999.2 hPa 1.6 Km/h N 0.0 mm  -0.3 °C 3.6 °C
Sacile2 (PN) 23/01/19 07.45 0.1 °C 91 % -1.2 °C 1002.4 hPa 0.0 Km/h --- 0.0 mm  -0.1 °C 3.5 °C
Salcedo (VI) 23/01/19 07.49 -2.0 °C 89 % -3.6 °C 996.6 hPa 1.9 Km/h NNW 0.0 mm  -2.4 °C 0.4 °C
San Benedetto del Tronto (AP) 23/01/19 07.30 2.4 °C 80 % -0.7 °C 997.5 hPa 0.0 Km/h W 0.0 mm  2.4 °C 4.7 °C
San Cataldo (CL) 23/01/19 07.48 3.1 °C 76 % -0.7 °C 997.9 hPa 4.1 Km/h NNE 0.0 mm  3.1 °C 4.8 °C
San Giovanni la Punta Trappeto (CT) 23/01/19 07.45 5.3 °C 78 % 1.8 °C 1001.7 hPa 8.0 Km/h NNW 0.0 mm  5.2 °C 9.2 °C
San Nazario (VI) 23/01/19 07.48 0.1 °C 84 % -2.3 °C 998.4 hPa 1.1 Km/h N 0.0 mm  -0.1 °C 3.2 °C
San Pietro di Rosà (VI) 23/01/19 07.48 -0.2 °C 95 % -0.9 °C 1002.4 hPa 0.0 Km/h NNE 0.0 mm  -0.3 °C 2.7 °C
San Pietro in Cariano (VR) 23/01/19 07.40 0.2 °C 99 % 0.0 °C 998.2 hPa 5.0 Km/h SE 0.0 mm  0.2 °C 1.5 °C
San Potito Lugo (RA) 23/01/19 07.45 0.5 °C 96 % -0.1 °C 990.7 hPa 0.0 Km/h NW 0.0 mm  0.5 °C 1.6 °C
San Salvo3 (CH) 23/01/19 07.49 2.0 °C 95 % 1.3 °C 996.7 hPa 1.6 Km/h SSW 0.2 mm  1.6 °C 4.0 °C
San Vito di Negrar (VR) 23/01/19 07.40 0.4 °C 94 % -0.5 °C 999.4 hPa 0.0 Km/h SE 0.0 mm  0.3 °C 1.6 °C
San Zeno di Mont. Loc. Castello (VR) 23/01/19 07.45 -3.1 °C 91 % -4.4 °C 997.6 hPa 1.4 Km/h NNW 0.0 mm  -3.2 °C -1.9 °C
Santa Maria di Negrar (VR) 23/01/19 07.39 0.7 °C 89 % -0.9 °C 999.5 hPa 1.1 Km/h W 0.0 mm  0.3 °C 1.3 °C
Sarcedo (VI) 23/01/19 07.45 -0.4 °C 95 % -1.1 °C 997.9 hPa 0.0 Km/h WSW 0.0 mm  -0.6 °C 1.6 °C
Savelli (KR) 23/01/19 07.48 2.9 °C 71 % -1.9 °C 1001.9 hPa 0.7 Km/h SW 0.0 mm  2.4 °C 3.9 °C
Schio (VI) 23/01/19 07.25 -0.4 °C 93 % -1.4 °C 1000.5 hPa 0.0 Km/h --- 0.0 mm  -0.4 °C 1.3 °C
Schio Monte Magré (VI) 23/01/19 07.49 -1.3 °C 94 % -2.1 °C 0.0 hPa 0.0 Km/h E 0.0 mm  -1.3 °C 0.4 °C
Seremange Erzange (Moselle) 23/01/19 07.49 -1.5 °C 97 % -1.9 °C 997.3 hPa 3.2 Km/h NE 0.0 mm  -2.1 °C -1.6 °C
Sinnai (CA) 23/01/19 07.30 3.6 °C 91 % 2.2 °C 1001.4 hPa 0.0 Km/h --- 2.0 mm  3.6 °C 6.1 °C
Soave Borgo Bassano (VR) 23/01/19 07.45 1.2 °C 90 % -0.2 °C 999.6 hPa 3.0 Km/h NE 0.4 mm  0.9 °C 2.8 °C
Sona Loc. La Colombara (VR) 23/01/19 07.00 1.0 °C 93 % 0.0 °C 995.5 hPa 2.0 Km/h ESE 0.0 mm  0.0 °C 2.0 °C
Soriso (NO) 23/01/19 07.40 -2.1 °C 81 % -4.9 °C 998.6 hPa 0.0 Km/h N 0.0 mm  -2.1 °C -0.6 °C
Spoltore (PE) 23/01/19 07.40 1.9 °C 98 % 1.6 °C 1000.0 hPa 4.7 Km/h N 0.0 mm  1.8 °C 4.3 °C
Staranzano (GO) 23/01/19 07.30 -0.2 °C 83 % -2.8 °C 999.5 hPa 9.7 Km/h E 0.0 mm  -0.2 °C 2.4 °C
Stiore - Monteveglio (BO) 23/01/19 07.48 0.6 °C 95 % -0.2 °C 995.6 hPa 4.8 Km/h S 0.0 mm  0.1 °C 0.6 °C
Taio Mollaro (TN) 23/01/19 07.48 -6.1 °C 80 % -9.0 °C 999.0 hPa 0.0 Km/h N 0.0 mm  -6.6 °C -4.9 °C
Taranto (TA) 23/01/19 07.49 7.5 °C 79 % 4.1 °C 998.1 hPa 6.5 Km/h ESE 0.0 mm  6.9 °C 11.6 °C
Todi (PG) 23/01/19 07.45 2.2 °C 86 % 0.1 °C 998.9 hPa 2.0 Km/h SW 0.8 mm  1.5 °C 2.3 °C
Tombolo (PD) 23/01/19 07.49 0.1 °C 95 % -0.6 °C 999.9 hPa 4.3 Km/h N 0.0 mm  0.0 °C 2.3 °C
Torino Regio Parco (TO) 23/01/19 07.49 -0.6 °C 82 % -3.3 °C 998.6 hPa 4.5 Km/h SE 0.0 mm  -1.2 °C -0.2 °C
Torri (FI) 17/01/19 07.45 5.2 °C 93 % 4.2 °C 1016.8 hPa 6.4 Km/h SSE 6.1 mm  5.2 °C 8.6 °C
Torrita di Siena (SI) 23/01/19 07.40 1.2 °C 97 % 0.8 °C 1000.1 hPa 0.0 Km/h --- 2.4 mm  0.6 °C 1.3 °C
Trambileno (TN) 23/01/19 07.44 -3.0 °C 84 % -5.3 °C 997.5 hPa 0.0 Km/h E 0.0 mm  -5.0 °C -3.0 °C
Tregnago Loc. Centro (VR) 22/01/19 19.25 2.3 °C 59 % -4.9 °C 997.6 hPa 3.2 Km/h WNW 0.0 mm  0.2 °C 5.2 °C
Trento (TN) 23/01/19 07.49 -0.8 °C 66 % -6.4 °C 997.8 hPa 6.4 Km/h NNE 0.0 mm  -1.6 °C -0.3 °C
Treviso (TV) 23/01/19 07.46 0.1 °C 86 % -2.0 °C 999.0 hPa 0.0 Km/h NE 0.0 mm  -0.3 °C 2.5 °C
Tuscania (VT) 22/01/19 22.00 2.9 °C 92 % 1.8 °C 1003.3 hPa 0.0 Km/h NE 2.8 mm  2.7 °C 4.8 °C
Val Lastaro (VI) 23/01/19 07.40 -5.8 °C 91 % -7.2 °C 999.5 hPa 1.7 Km/h ENE 0.0 mm  -7.3 °C -5.0 °C
Valdagno (VI) 23/01/19 07.45 -0.6 °C 89 % -2.2 °C 995.4 hPa 3.6 Km/h SE 0.0 mm  -0.8 °C 0.7 °C
Valdobbiadene San Pietro di Barbozza (TV) 23/01/19 07.40 -1.2 °C 94 % -2.0 °C 997.8 hPa 0.0 Km/h --- 0.0 mm  -1.4 °C 2.0 °C
Valentano (VT) 23/01/19 07.49 1.3 °C 92 % 0.0 °C 998.0 hPa 0.0 Km/h N 1.0 mm  0.7 °C 1.7 °C
Valenza (AL) 23/01/19 07.49 -4.9 °C 92 % -6.0 °C 997.7 hPa 1.6 Km/h S 0.0 mm  -6.4 °C -3.8 °C
Valli del Pasubio loc. Gisbenti (VI) 23/01/19 07.45 -1.7 °C 84 % -4.0 °C 954.0 hPa 0.0 Km/h --- 0.0 mm  -2.0 °C -0.8 °C
Varese Ligure (SP) 23/01/19 07.46 -0.2 °C 82 % -2.9 °C 996.0 hPa 2.0 Km/h NO 0.0 mm  -1.1 °C 3.0 °C
Vasto (CH) 22/01/19 19.47 5.9 °C 10 % -23.4 °C 1001.5 hPa 2.0 Km/h N 5.1 mm  5.5 °C 7.9 °C
Vattaro fraz. Pian dei Pradi (TN) 23/01/19 07.49 -4.6 °C 79 % -7.6 °C 999.2 hPa 0.7 Km/h E 0.0 mm  -4.6 °C -2.0 °C
Vazzo Roveré Veronese (VR) 23/01/19 07.49 -4.9 °C 91 % -6.1 °C 995.3 hPa 1.6 Km/h SW 0.0 mm  -4.9 °C -3.6 °C
Verona Bgo Venezia (iz3sly) (VR) 22/01/19 22.00 2.5 °C 78 % -0.9 °C 1001.6 hPa 0.0 Km/h NNE 0.0 mm  -2.2 °C 7.7 °C
Verona Cadidavid2 (VR) 23/01/19 07.35 0.7 °C 82 % -2.0 °C 998.1 hPa 0.3 Km/h SE 0.0 mm  0.7 °C 2.0 °C
Vicenza Campedello (VI) 23/01/19 07.58 -0.1 °C 97 % -0.6 °C 1000.0 hPa 0.0 Km/h SE 0.0 mm  -0.3 °C 2.5 °C
Vicenza Moracchino (VI) 23/01/19 07.49 0.1 °C 94 % -0.7 °C 998.3 hPa 0.0 Km/h NNW 0.2 mm  0.1 °C 2.6 °C
Vicenza Pecori Giraldi (VI) 23/01/19 07.35 0.4 °C 100 % 0.4 °C 998.4 hPa 0.0 Km/h N 0.0 mm  0.4 °C 3.5 °C
Vicenza S. Lazzaro (VI) 23/01/19 07.44 1.0 °C 92 % -0.2 °C 998.6 hPa 3.0 Km/h NNE 0.2 mm  1.0 °C 3.0 °C
Vicenza San Gaetano (VI) 23/01/19 07.46 1.0 °C 96 % 0.4 °C 999.3 hPa 0.0 Km/h E 0.2 mm  1.0 °C 3.6 °C
Vidor (TV) 23/01/19 07.40 -0.5 °C 87 % -2.4 °C 997.5 hPa 0.0 Km/h E 0.0 mm  -0.5 °C 1.9 °C
Vieste (FG) 23/01/19 07.49 7.9 °C 71 % 3.0 °C 998.7 hPa 9.6 Km/h S 0.0 mm  6.9 °C 9.4 °C
Vigardolo (VI) 23/01/19 07.45 0.8 °C 83 % -1.8 °C 997.3 hPa 0.2 Km/h NW 0.0 mm  0.6 °C 3.2 °C
Vigasio (VR) 23/01/19 07.30 1.4 °C 94 % 0.5 °C 997.4 hPa 1.6 Km/h ESE 0.0 mm  1.4 °C 2.6 °C
Villabartolomea (VR) 23/01/19 07.44 0.3 °C 92 % -0.8 °C 998.3 hPa 0.0 Km/h NE 0.5 mm  0.1 °C 2.1 °C
Viozene Toria (CN) 22/01/19 18.49 -3.6 °C 58 % -10.6 °C 996.8 hPa 1.0 Km/h N 0.0 mm  -3.6 °C 3.7 °C
Viterbo Santa Barbara (VT) 23/01/19 07.49 0.7 °C 91 % -0.6 °C 999.1 hPa 0.0 Km/h NE 0.4 mm  0.6 °C 2.1 °C
Viterbo Strada Bagni (VT) 23/01/19 07.44 0.0 °C 94 % -0.8 °C 999.1 hPa 0.0 Km/h NE 0.2 mm  0.0 °C 3.0 °C
Vitorchiano Pallone (VT) 22/01/19 18.50 1.6 °C 97 % 1.1 °C 1001.9 hPa 0.0 Km/h --- 20.4 mm  0.6 °C 3.1 °C
Vittorio Veneto (TV) 23/01/19 07.35 -0.1 °C 88 % -1.8 °C 999.2 hPa 0.0 Km/h SSE 0.0 mm  -0.1 °C 2.6 °C
Vittorio Veneto Parco Fenderl (TV) 23/01/19 07.30 -573.3 °C 255 % -73.3 °C 999.2 hPa 0.0 Km/h N 0.0 mm  -573.3 °C 2.2 °C
Volpago del Montello (TV) 23/01/19 07.30 -0.2 °C 92 % -1.4 °C 998.9 hPa 0.0 Km/h --- 0.0 mm  -0.3 °C 1.9 °C
 
(*) = Precipitazioni nelle ultime 24h.
Dati non aggiornati nell'ultima ora.
   
In collaborazione con:
 
Top! Top!